AirNav   Everest Fuels
 
 724 users online  

5TN5 Thomas Field Airport
Jonesborough, Tennessee, USA

GOING TO JONESBOROUGH?


FAA INFORMATION EFFECTIVE 16 JULY 2020

Location

FAA Identifier: 5TN5
Lat/Long: 36-20-02.0000N 082-28-49.0000W
36-20.033333N 082-28.816667W
36.3338889,-82.4802778
(estimated)
Elevation: 1741 ft. / 531 m (estimated)
Variation: 06W ()
From city: 2 miles N of JONESBOROUGH, TN
Time zone: UTC -4 (UTC -5 during Standard Time)
Zip code: 37615

Airport Operations

Airport use: Private use. Permission required prior to landing
Activation date: 11/2015
Control tower: no
ARTCC: ATLANTA CENTER
FSS: NASHVILLE FLIGHT SERVICE STATION
Attendance: 0 0 0
Wind indicator: yes
Segmented circle: no

Airport Communications

WX ASOS at TRI (9 nm NE): 118.25 (423-279-0363)
WX AWOS-3PT at 0A9 (15 nm E): 135.675 (423-543-1801)
WX AWOS-3 at GCY (18 nm SW): 128.425 (423-639-5081)

Nearby radio navigation aids

VOR radial/distance  VOR name  Freq  Var
HMVr254/18.0HOLSTON MOUNTAIN VORTAC114.6004W
GZGr215/35.2GLADE SPRING VOR/DME110.2002W

 
NDB name  Hdg/Dist  Freq  Var  ID
BOOIE176/4.022107WBO -... ---
ROGERSVILLE118/20.832907WRVN .-. ...- -.
DULANEY066/23.126307WDYQ -.. -.-- --.-
HEMLOCK292/31.032002WBAR -... .- .-.

Airport Services

Runway Information

Runway 4/22

Dimensions: 1050 x 50 ft. / 320 x 15 m
Surface: turf, in good condition
RUNWAY 4  RUNWAY 22
Traffic pattern: leftleft

Airport Ownership and Management from official FAA records

Ownership: Privately-owned
Owner: JOE THOMAS
3612 HONLEYWOOD DR
JOHNSON CITY, TN
Phone 423 791 2828
Manager: JOE THOMAS
3612 HONLEYWOOD DR
JOHNSON CITY, TN
Phone 423 791 2828

Airport Operational Statistics

Aircraft based on the field: 1
Single engine airplanes: 1
    

Additional Remarks

FOR CD CTC ATLANTA ARTCC AT 770-210-7692.

Instrument Procedures

There are no published instrument procedures at 5TN5.

Some nearby airports with instrument procedures:

KTRI - Tri-Cities Airport (9 nm NE)
0A9 - Elizabethton Municipal Airport (15 nm E)
KGCY - Greeneville Municipal Airport (18 nm SW)
KRVN - Hawkins County Airport (21 nm W)
KVJI - Virginia Highlands Airport (30 nm NE)
 
Loc | Ops | Rwys | IFR | FBO | Links
Com | Nav | Svcs | Stats | Notes
Aerial photo
No photo
 
Airport distance calculator
Flying to Thomas Field Airport? Find the distance to fly.

From to 5TN5

Sunrise and sunset
Times for 07-Aug-2020
 Local
(UTC-4)
 Zulu
(UTC)
Morning civil twilight06:1510:15
Sunrise06:4310:43
Sunset20:2800:28
Evening civil twilight20:5600:56

Current date and time
Zulu (UTC)  07-Aug-2020 11:37:49
Local (UTC-4)  07-Aug-2020 07:37:49
 
METAR
KTRI 
10nm NE 
071119Z 00000KT 1/4SM FG VV002 18/18 A3011 RMK AO2 T01830178
K0A9 
15nm E 
071115Z AUTO 05003KT 10SM CLR 19/18 A3011 RMK AO2
KGCY 
18nm SW 
071115Z AUTO 00000KT 7SM CLR 19/19 A3010 RMK A01
TAF
KTRI 
10nm NE 
071025Z 0710/0806 00000KT 1/4SM FG VV001 TEMPO 0711/0713 3/4SM BR BKN002 FM071300 00000KT 3SM BR SCT002 FM071400 00000KT P6SM SCT035 PROB30 0720/0724 4SM -TSRA BR BKN035CB
NOTAMs
Click for the latest NOTAMs
NOTAMs are issued by the DoD/FAA and will open in a separate window not controlled by AirNav.

 

 
 

Would you like to see your business listed on this page?

 If your business provides an interesting product or service to pilots, flight crews, aircraft, or users of the Thomas Field Airport, you should consider listing it here.  To start the listing process, click on the button below
 
Add a business
 

Other Pages about Thomas Field Airport

Update a link
 
Copyright © AirNav, LLC. All rights reserved. Privacy Policy  Contact